Prudhoe Bay, AK

8:01 PM AKST on February 09, 2016 (GMT -0900)
Deadhorse

Weather History for PASC - January, 2014

Change the Weather History Date:

Thursday, January 2, 2014

  Actual Average Record
Temperature  
Mean Temperature 0 °F -  
Max Temperature 1 °F -5 °F 23 °F (2004)
Min Temperature -2 °F -17 °F -45 °F (2007)
Degree Days  
Heating Degree Days 66    
Moisture  
Dew Point -5 °F    
Average Humidity 83    
Maximum Humidity 92    
Minimum Humidity 78    
Precipitation  
Precipitation 0.00 in - - ()
Sea Level Pressure  
Sea Level Pressure 30.03 in    
Wind  
Wind Speed 30 mph (East)    
Max Wind Speed 36 mph    
Max Gust Speed 43 mph    
Visibility 1 miles    
Events Fog , Snow    
Averages and records for this station are not official NWS values.
T = Trace of Precipitation, MM = Missing Value Source: NWS Daily Summary

Daily Weather History Graph

Daily Weather History Graph

Search for Another Location

Airport or City:

Trip Planner

Search our weather history database for the weather conditions in past years. The results will help you decide how hot, cold, wet, or windy it might be!

Date:

Astronomy

Dec. 31, 1969 Rise Set
Actual Time Sun does not rise Sun does not rise
Civil Twilight 10:44 AM AKST 3:11 PM AKST
Nautical Twilight 8:59 AM AKST 4:57 PM AKST
Astronomical Twilight 7:39 AM AKST 6:16 PM AKST
Moon 11:29 AM AKST (1/2) 5:34 PM AKST (1/2)
Length of Visible Light 4h 26m
Length of Day
0h 00m
Waxing Crescent, 3% of the Moon is Illuminated
Jan 2
Waxing Crescent
Jan 7
First Quarter
Jan 15
Full
Jan 23
Last Quarter
Jan 30
New

Hourly Weather History & Observations

Time (AKST) Temp. Windchill Dew Point Humidity Pressure Visibility Wind Dir Wind Speed Gust Speed Precip Events Conditions
12:53 AM -0.9 °F -27.5 °F -5.1 °F 83% 29.74 in 2.0 mi East 31.1 mph - N/A Snow Blowing Snow
1:53 AM -2.0 °F -27.8 °F -6.0 °F 83% 29.78 in 1.0 mi East 27.6 mph - N/A Snow Blowing Snow
2:53 AM -2.0 °F -27.8 °F -6.0 °F 83% 29.81 in 0.8 mi East 27.6 mph - N/A Snow Blowing Snow
3:53 AM -0.9 °F -25.9 °F -5.1 °F 83% 29.83 in 1.0 mi East 26.5 mph - N/A Snow Blowing Snow
4:53 AM 1.0 °F -24.4 °F -2.9 °F 83% 29.85 in 0.8 mi East 29.9 mph - N/A Snow Blowing Snow
5:40 AM 1.4 °F -24.6 °F -2.2 °F 85% 29.84 in 1.0 mi East 32.2 mph 39.1 mph N/A Snow Blowing Snow
5:53 AM 1.0 °F -24.4 °F -2.9 °F 83% 29.86 in 0.8 mi East 29.9 mph - N/A Snow Blowing Snow
6:53 AM -0.0 °F -26.3 °F -4.0 °F 83% 29.89 in 0.8 mi East 31.1 mph - N/A Snow Blowing Snow
7:17 AM -0.4 °F -27.1 °F -4.0 °F 85% 29.89 in 1.0 mi East 32.2 mph - N/A Snow Blowing Snow
7:53 AM -0.0 °F -25.9 °F -4.0 °F 83% 29.91 in 1.0 mi East 29.9 mph - N/A Snow Blowing Snow
8:53 AM -0.0 °F -25.5 °F -4.0 °F 83% 29.93 in 0.8 mi East 28.8 mph - N/A Snow Blowing Snow
8:58 AM -0.4 °F -25.6 °F -4.0 °F 85% 29.92 in 1.0 mi East 27.6 mph - N/A Snow Blowing Snow
9:41 AM -0.4 °F -26.0 °F -2.2 °F 92% 29.95 in 1.0 mi East 28.8 mph - N/A Snow Blowing Snow
9:53 AM -0.0 °F -25.9 °F -2.9 °F 88% 29.96 in 0.5 mi East 29.9 mph - N/A Snow Blowing Snow
10:53 AM -0.0 °F -26.6 °F -2.9 °F 88% 29.99 in 0.5 mi East 32.2 mph 40.3 mph N/A Snow Blowing Snow
11:53 AM -0.9 °F -27.5 °F -5.1 °F 83% 30.02 in 0.8 mi East 31.1 mph 38.0 mph N/A Snow Blowing Snow
12:53 PM -2.9 °F -29.8 °F -7.1 °F 82% 30.04 in 0.8 mi East 29.9 mph - N/A Snow Blowing Snow
12:55 PM -2.2 °F -28.4 °F -7.6 °F 78% 30.03 in 1.0 mi East 28.8 mph - N/A Snow Blowing Snow
1:23 PM -2.2 °F -28.0 °F -7.6 °F 78% 30.04 in 0.8 mi East 27.6 mph - N/A Snow Blowing Snow
1:53 PM -2.9 °F -29.4 °F -7.1 °F 82% 30.06 in 0.8 mi East 28.8 mph - N/A Snow Blowing Snow
2:21 PM -2.2 °F -28.4 °F -5.8 °F 85% 30.06 in 0.8 mi East 28.8 mph - N/A Snow Blowing Snow
2:53 PM -2.0 °F -27.8 °F -6.0 °F 83% 30.08 in 0.8 mi East 27.6 mph - N/A Snow Blowing Snow
2:56 PM -2.2 °F -28.0 °F -5.8 °F 85% 30.07 in 0.8 mi East 27.6 mph 36.8 mph N/A Snow Blowing Snow
3:20 PM -2.2 °F -29.6 °F -5.8 °F 85% 30.08 in 1.0 mi East 32.2 mph - N/A Snow Blowing Snow
3:49 PM -0.4 °F -27.8 °F -5.8 °F 78% 30.08 in 1.0 mi East 34.5 mph 42.6 mph N/A Snow Blowing Snow
3:53 PM -0.9 °F -28.9 °F -5.1 °F 83% 30.09 in 1.0 mi East 35.7 mph 42.6 mph N/A Snow Blowing Snow
4:11 PM -0.4 °F -27.8 °F -5.8 °F 78% 30.09 in 1.0 mi East 34.5 mph 41.4 mph N/A Snow Blowing Snow
4:20 PM -2.2 °F -29.9 °F -5.8 °F 85% 30.09 in 1.0 mi East 33.4 mph 41.4 mph N/A Snow Blowing Snow
4:36 PM -2.2 °F -29.9 °F -5.8 °F 85% 30.10 in 1.0 mi East 33.4 mph 41.4 mph N/A Snow Blowing Snow
4:53 PM -2.0 °F -29.3 °F -6.0 °F 83% 30.11 in 1.0 mi East 32.2 mph - N/A Snow Blowing Snow
5:53 PM -2.0 °F -27.8 °F -6.0 °F 83% 30.13 in 0.8 mi East 27.6 mph - N/A Snow Blowing Snow
6:37 PM -2.2 °F -29.2 °F -5.8 °F 85% 30.13 in 0.8 mi East 31.1 mph - N/A Snow Blowing Snow
6:53 PM -2.0 °F -28.6 °F -6.0 °F 83% 30.14 in 0.8 mi East 29.9 mph - N/A Snow Blowing Snow
7:53 PM -0.9 °F -28.2 °F -5.1 °F 83% 30.14 in 0.8 mi East 33.4 mph - N/A Snow Blowing Snow
8:03 PM -0.4 °F -27.1 °F -4.0 °F 85% 30.14 in 0.8 mi East 32.2 mph - N/A Snow Blowing Snow
8:11 PM -0.4 °F -26.0 °F -5.8 °F 78% 30.14 in 0.5 mi East 28.8 mph - N/A Snow Blowing Snow
8:23 PM -0.4 °F -26.4 °F -5.8 °F 78% 30.15 in 0.5 mi East 29.9 mph - N/A Snow Blowing Snow
8:53 PM -0.9 °F -25.9 °F -5.1 °F 83% 30.17 in 0.5 mi East 26.5 mph - N/A Snow Blowing Snow
9:01 PM -0.4 °F -24.7 °F -4.0 °F 85% 30.16 in 0.5 mi East 25.3 mph - N/A Snow Blowing Snow
9:53 PM -0.9 °F -25.5 °F -5.1 °F 83% 30.17 in 0.8 mi East 25.3 mph - N/A Snow Blowing Snow
10:53 PM -2.0 °F -26.0 °F -6.0 °F 83% 30.19 in 0.8 mi East 23.0 mph - N/A Snow Blowing Snow
11:53 PM -0.0 °F -24.7 °F -2.9 °F 88% 30.20 in 0.2 mi East 26.5 mph 34.5 mph N/A Fog , Snow Blowing Snow